User: anonymous   Login
Location: Unspecified
(0.0000°N, 0.0000°E)
Time: 06:16:17
(UTC+02:00)
Language:

Cosmos 1125 Rocket - Orbit

View from above orbital plane
View from above orbital plane
View from above satellite
View from above satellite

Ground track
Ground track

The orbit data is extracted from the following two-line orbital elements,

1 11511U 79078B   14297.10972545  .00000537  00000-0  19176-3 0  9279
2 11511 074.0365 292.5029 0014891 048.4966 015.3827 14.36472422839758
Epoch (UTC): 24 October 2014 02:38:00
Eccentricity: 0.0014891
inclination: 74.0365°
perigee height: 759 km
apogee height: 781 km
right ascension of ascending node: 292.5029°
argument of perigee: 48.4966°
revolutions per day: 14.36472422
mean anomaly at epoch: 15.3827°
orbit number at epoch: 83975

The dashed part of the orbit path shows where the satellite is in the earth's shadow,  

DLR